When you browse on this site, cookies collect data to enhance your experience and personalize the content and advertising you see.
Visit our Privacy Policy to learn more. By continuing to use the site, you agree to this use of cookies and data.
  • In United Kingdom
  • List of Countries
  • For 7 days
  • Water Temperature
  • Weather Map
  • Weather Widgets
  • user-avatar
    Login

    Hourly Weather Kerema

    Today, 19 September, Thursday

    Time Temperature Precipitation Wind Pressure Humidity
    00:00 +25°C° 0.6 mm 4 mps 759 mmHg 97%
    01:00 +25°C° 0.6 mm 4 mps 758 mmHg 97%
    02:00 +25°C° 0.6 mm 3 mps 758 mmHg 97%
    03:00 +25°C° 0.6 mm 3 mps 758 mmHg 97%
    04:00 +25°C° 0 mm 3 mps 758 mmHg 98%
    05:00 +25°C° 0.1 mm 3 mps 758 mmHg 97%
    06:00 +25°C° 0.1 mm 2 mps 758 mmHg 96%
    07:00 +26°C° 0.1 mm 2 mps 759 mmHg 95%
    08:00 +27°C° 0 mm 2 mps 758 mmHg 88%
    09:00 +29°C° 0 mm 2 mps 758 mmHg 82%
    10:00 +30°C° 0 mm 2 mps 758 mmHg 75%
    11:00 +31°C° 0.1 mm 3 mps 757 mmHg 74%
    12:00 +31°C° 0.1 mm 3 mps 757 mmHg 73%
    13:00 +31°C° 0.1 mm 3 mps 756 mmHg 72%
    14:00 +32°C° 0.2 mm 4 mps 756 mmHg 74%
    15:00 +30°C° 0.2 mm 4 mps 755 mmHg 77%
    16:00 +29°C° 0 mm 4 mps 755 mmHg 81%
    17:00 +28°C° 0.2 mm 4 mps 756 mmHg 85%
    18:00 +27°C° 0.2 mm 4 mps 756 mmHg 90%
    19:00 +26°C° 0.2 mm 4 mps 757 mmHg 95%
    20:00 +26°C° 0.2 mm 4 mps 757 mmHg 95%
    21:00 +26°C° 0.2 mm 4 mps 758 mmHg 95%
    22:00 +26°C° 0.2 mm 4 mps 758 mmHg 95%
    23:00 +26°C° 0.1 mm 3 mps 757 mmHg 96%

    Tomorrow, 20 September, Friday

    Time Temperature Precipitation Wind Pressure Humidity
    00:00 +26°C° 0.1 mm 3 mps 757 mmHg 96%
    01:00 +26°C° 0.1 mm 2 mps 756 mmHg 97%
    02:00 +25°C° 0.1 mm 2 mps 756 mmHg 97%
    03:00 +25°C° 0.1 mm 2 mps 756 mmHg 97%
    04:00 +25°C° 0.1 mm 2 mps 756 mmHg 97%
    05:00 +26°C° 0.1 mm 2 mps 756 mmHg 96%
    06:00 +26°C° 0.1 mm 2 mps 757 mmHg 95%
    07:00 +26°C° 0.1 mm 1 mps 757 mmHg 95%
    08:00 +28°C° 0.2 mm 2 mps 757 mmHg 89%
    09:00 +29°C° 0.2 mm 2 mps 757 mmHg 82%
    10:00 +31°C° 0.2 mm 2 mps 757 mmHg 76%
    11:00 +31°C° 0.5 mm 2 mps 756 mmHg 77%
    12:00 +31°C° 0.5 mm 3 mps 756 mmHg 78%
    13:00 +31°C° 0.5 mm 3 mps 755 mmHg 79%
    14:00 +30°C° 0.4 mm 3 mps 755 mmHg 80%
    15:00 +30°C° 0.4 mm 3 mps 755 mmHg 81%
    16:00 +29°C° 0.4 mm 3 mps 755 mmHg 82%
    17:00 +28°C° 0.1 mm 2 mps 755 mmHg 87%
    18:00 +27°C° 0.1 mm 2 mps 756 mmHg 91%
    19:00 +26°C° 0.1 mm 1 mps 756 mmHg 95%
    20:00 +26°C° 0.1 mm 1 mps 756 mmHg 95%
    21:00 +26°C° 0.1 mm 1 mps 757 mmHg 95%
    22:00 +26°C° 0.1 mm 1 mps 757 mmHg 95%
    23:00 +26°C° 0.2 mm 1 mps 757 mmHg 95%

    Day after tomorrow, 21 September, Saturday

    Time Temperature Precipitation Wind Pressure Humidity
    00:00 +26°C° 0.2 mm 2 mps 757 mmHg 95%
    01:00 +26°C° 0.2 mm 2 mps 756 mmHg 95%
    02:00 +26°C° 0.6 mm 2 mps 756 mmHg 96%
    03:00 +26°C° 0.6 mm 2 mps 756 mmHg 96%
    04:00 +25°C° 0.6 mm 2 mps 756 mmHg 96%
    05:00 +26°C° 0.2 mm 2 mps 757 mmHg 95%
    06:00 +26°C° 0.2 mm 2 mps 757 mmHg 94%
    07:00 +26°C° 0.2 mm 2 mps 757 mmHg 93%
    08:00 +28°C° 0.1 mm 2 mps 757 mmHg 85%
    09:00 +30°C° 0.1 mm 2 mps 757 mmHg 77%
    10:00 +32°C° 0.1 mm 2 mps 757 mmHg 69%
    11:00 +31°C° 0.7 mm 2 mps 756 mmHg 73%
    12:00 +31°C° 0.7 mm 2 mps 756 mmHg 78%
    13:00 +30°C° 0.7 mm 3 mps 755 mmHg 82%
    14:00 +30°C° 0.6 mm 3 mps 755 mmHg 84%
    15:00 +29°C° 0.6 mm 3 mps 755 mmHg 86%
    16:00 +28°C° 0.6 mm 3 mps 755 mmHg 89%
    17:00 +28°C° 0.5 mm 3 mps 756 mmHg 91%
    18:00 +27°C° 0.5 mm 3 mps 756 mmHg 93%
    19:00 +26°C° 0.5 mm 3 mps 756 mmHg 95%
    20:00 +26°C° 0.2 mm 3 mps 757 mmHg 95%
    21:00 +26°C° 0.2 mm 2 mps 757 mmHg 95%
    22:00 +26°C° 0.2 mm 2 mps 757 mmHg 95%
    23:00 +26°C° 0.1 mm 2 mps 757 mmHg 96%

    22 September, Sunday

    Time Temperature Precipitation Wind Pressure Humidity
    00:00 +26°C° 0.1 mm 1 mps 757 mmHg 96%
    01:00 +26°C° 0.1 mm 1 mps 756 mmHg 96%
    02:00 +25°C° 0.2 mm 1 mps 756 mmHg 96%
    03:00 +25°C° 0.2 mm 1 mps 756 mmHg 96%
    04:00 +25°C° 0.2 mm 1 mps 756 mmHg 96%
    05:00 +25°C° 0 mm 1 mps 757 mmHg 95%
    06:00 +26°C° 0 mm 1 mps 757 mmHg 94%
    07:00 +24°C° 0 mm 0 mps 757 mmHg 93%
    08:00 +28°C° 0 mm 1 mps 757 mmHg 86%
    09:00 +30°C° 0 mm 1 mps 757 mmHg 78%
    10:00 +31°C° 0 mm 1 mps 757 mmHg 71%
    11:00 +31°C° 0.5 mm 2 mps 757 mmHg 73%
    12:00 +31°C° 0.5 mm 2 mps 756 mmHg 74%
    13:00 +31°C° 0.5 mm 3 mps 755 mmHg 76%
    14:00 +29°C° 0.5 mm 3 mps 755 mmHg 82%
    15:00 +28°C° 0.5 mm 3 mps 755 mmHg 88%
    16:00 +27°C° 0.5 mm 3 mps 755 mmHg 94%
    17:00 +26°C° 0.4 mm 3 mps 756 mmHg 95%
    18:00 +26°C° 0.4 mm 3 mps 756 mmHg 96%
    19:00 +26°C° 0.4 mm 3 mps 756 mmHg 97%
    20:00 +26°C° 0.1 mm 2 mps 757 mmHg 97%
    21:00 +26°C° 0.1 mm 2 mps 757 mmHg 97%
    22:00 +26°C° 0.1 mm 2 mps 758 mmHg 97%
    23:00 +25°C° 0.2 mm 1 mps 758 mmHg 97%

    23 September, Monday

    Time Temperature Precipitation Wind Pressure Humidity
    00:00 +25°C° 0.2 mm 1 mps 757 mmHg 97%
    01:00 +25°C° 0.2 mm 1 mps 757 mmHg 96%
    02:00 +25°C° 0 mm 1 mps 757 mmHg 96%
    03:00 +25°C° 0 mm 1 mps 757 mmHg 96%
    04:00 +25°C° 0 mm 2 mps 756 mmHg 96%
    05:00 +25°C° 0.3 mm 2 mps 757 mmHg 96%
    06:00 +25°C° 0.3 mm 2 mps 757 mmHg 96%
    07:00 +25°C° 0.3 mm 3 mps 758 mmHg 96%
    08:00 +26°C° 0.3 mm 2 mps 758 mmHg 94%
    09:00 +27°C° 0.3 mm 2 mps 758 mmHg 92%
    10:00 +27°C° 0.3 mm 1 mps 758 mmHg 90%
    11:00 +28°C° 0.6 mm 1 mps 758 mmHg 90%
    12:00 +28°C° 0.6 mm 1 mps 757 mmHg 89%
    13:00 +28°C° 0.6 mm 1 mps 757 mmHg 89%
    14:00 +27°C° 1.3 mm 1 mps 757 mmHg 91%
    15:00 +27°C° 1.3 mm 1 mps 756 mmHg 93%
    16:00 +26°C° 1.3 mm 1 mps 756 mmHg 95%
    17:00 +26°C° 0.6 mm 1 mps 757 mmHg 96%
    18:00 +26°C° 0.6 mm 1 mps 757 mmHg 97%
    19:00 +25°C° 0.6 mm 1 mps 758 mmHg 97%
    20:00 +25°C° 0.1 mm 1 mps 758 mmHg 97%
    21:00 +25°C° 0.1 mm 1 mps 759 mmHg 97%
    22:00 +25°C° 0.1 mm 1 mps 759 mmHg 97%
    23:00 +23°C° 0.2 mm 0 mps 759 mmHg 97%

    24 September, Tuesday

    Time Temperature Precipitation Wind Pressure Humidity
    00:00 +23°C° 0.2 mm 0 mps 758 mmHg 97%
    01:00 +23°C° 0.2 mm 0 mps 758 mmHg 98%
    02:00 +23°C° 0.2 mm 0 mps 758 mmHg 98%
    03:00 +23°C° 0.2 mm 0 mps 757 mmHg 98%
    04:00 +23°C° 0.2 mm 0 mps 757 mmHg 98%
    05:00 +23°C° 0.1 mm 0 mps 758 mmHg 97%
    06:00 +23°C° 0.1 mm 0 mps 758 mmHg 96%
    07:00 +23°C° 0.1 mm 0 mps 758 mmHg 95%
    08:00 +24°C° 0 mm 0 mps 758 mmHg 92%
    09:00 +25°C° 0 mm 0 mps 758 mmHg 88%
    10:00 +26°C° 0 mm 0 mps 758 mmHg 85%
    11:00 +29°C° 0.1 mm 1 mps 758 mmHg 81%
    12:00 +29°C° 0.1 mm 1 mps 757 mmHg 77%
    13:00 +30°C° 0.1 mm 2 mps 757 mmHg 73%
    14:00 +29°C° 0.1 mm 2 mps 756 mmHg 77%
    15:00 +29°C° 0.1 mm 2 mps 756 mmHg 80%
    16:00 +28°C° 0.1 mm 2 mps 756 mmHg 84%
    17:00 +27°C° 0 mm 2 mps 756 mmHg 87%
    18:00 +27°C° 0 mm 2 mps 757 mmHg 91%
    19:00 +26°C° 0 mm 2 mps 757 mmHg 95%
    20:00 +26°C° 0 mm 2 mps 758 mmHg 95%
    21:00 +26°C° 0 mm 3 mps 758 mmHg 95%
    22:00 +25°C° 0 mm 3 mps 759 mmHg 95%
    23:00 +25°C° 0 mm 2 mps 758 mmHg 96%
    Show more